Regional Weather Roundup
Issued by NWS

Home | Current Version | Previous Version | Graphics & Text | Print | Product List | Glossary On
Versions: 1 2 3 4 5 6 7 8 9 10 11 12 13 14 15 16 17 18 19 20 21 22 23 24 25 26 27 28 29 30 31 32 33 34 35 36 37 38 39 40 41 42 43 44 45 46 47 48 49 50
000
ASUS45 KPSR 272210
RWRAZ

ARIZONA HOURLY REGIONAL WEATHER ROUNDUP
NATIONAL WEATHER SERVICE PHOENIX AZ
300 PM MST SAT AUG 27 2016

NOTE: FAIR INDICATES FEW OR NO CLOUDS BELOW 12,000 FEET WITH NO
SIGNIFICANT WEATHER AND/OR OBSTRUCTIONS TO VISIBILITY.

AZZ001>003-036-272300-
NORTHWEST ARIZONA

CITY           SKY/WX    TMP DP  RH WIND       PRES   REMARKS
BULLHEAD CITY  MOSUNNY   91  54  27 NW6       29.89F
KINGMAN        CLOUDY    73  53  49 SE6       30.07F
$$

AZZ004>008-015-016-018-272300-
NORTH CENTRAL ARIZONA

CITY           SKY/WX    TMP DP  RH WIND       PRES   REMARKS
GRAND CANYON   CLOUDY    64  48  56 W7        30.23F
PRESCOTT       MOSUNNY   74  53  48 NE8       30.14F
FLAGSTAFF      PTSUNNY   66  46  48 W10G20    30.25F
PAYSON         SUNNY     75  48  38 W8G14     30.18F
PAGE           CLOUDY    70  52  52 N7        30.12F
$$

AZZ009>014-017-272300-
NORTHEAST ARIZONA

CITY           SKY/WX    TMP DP  RH WIND       PRES   REMARKS
WINSLOW        SUNNY     73  54  51 E13       30.14F
SAINT JOHNS    PTSUNNY   64  54  69 E6        30.21F
SHOW LOW       MOSUNNY   64  50  59 N6        30.25F
$$

AZZ023-272300-
GREATER PHOENIX AREA

CITY           SKY/WX    TMP DP  RH WIND       PRES   REMARKS
PHOENIX        MOSUNNY   94  49  21 N8        29.86F
BUCKEYE        SUNNY     93  45  18 CALM      29.88F
GLENDALE       MOSUNNY   97  45  16 SW6G17    29.88F
LUKE AFB       SUNNY     95  46  18 W8        29.86F
DEER VALLEY    MOSUNNY   92  47  21 NW5       29.89F
SCOTTSDALE     SUNNY     94  43  17 NE6       29.91F
MESA-FALCON    MOSUNNY  N/A N/A N/A S9        29.86F
MESA-GATEWAY   MOSUNNY   93  43  17 NW6       29.89F
CHANDLER       SUNNY     95  43  16 W6        29.88F
$$

AZZ027-028-272300-
SOUTHWEST MARICOPA COUNTY AND PINAL COUNTY

CITY           SKY/WX    TMP DP  RH WIND       PRES   REMARKS
CASA GRANDE    SUNNY     95  41  15 S3G16     29.90F
GILA BEND      FAIR      98  39  13 W12       29.82F
$$

AZZ503-504-507>509-272300-
SOUTHEAST ARIZONA

CITY           SKY/WX    TMP DP  RH WIND       PRES   REMARKS
TUCSON         SUNNY     94  35  12 SW8G16    29.96F
DAVIS-MONTHAN  SUNNY     93  35  13 SW6       29.95F
RYAN FIELD     SUNNY     93  37  14 W16       29.95F
NOGALES        SUNNY     88  37  16 SW12      30.05F
SIERRA VISTA   PTSUNNY   85  39  19 W7        30.10F
DOUGLAS        PTSUNNY   88  41  19 SW7       30.03F
SAFFORD        SUNNY     91  48  22 NW14G25   29.96F
$$

AZZ020-021-025-026-031-272300-
SOUTHWEST ARIZONA

CITY           SKY/WX    TMP DP  RH WIND       PRES   REMARKS
YUMA           SUNNY     98  56  24 VRB3      29.79F
$$

CAZ031-033-041-043-047-048-061-272300-
SOUTHERN CALIFORNIA

CITY           SKY/WX    TMP DP  RH WIND       PRES   REMARKS
DOWNTOWN L.A.  SUNNY     74  58  57 W8        29.95F
L.A. AIRPORT   SUNNY     73  57  57 W14       29.97F
SAN DIEGO      MOSUNNY   75  58  55 NW13      29.97F
BURBANK        SUNNY     77  57  50 VRB7      29.95F
ONTARIO        MOSUNNY   81  53  37 W9        29.94F
RIVERSIDE      SUNNY     83  54  36 W5        29.94F
PALM SPRINGS   SUNNY     99  56  23 VRB7G18   29.84F
EL CENTRO NAS  SUNNY    100  49  17 VRB5      29.80F
IMPERIAL       SUNNY    101  56  22 E9        29.78F HX 100
BLYTHE         SUNNY     98  53  22 E12G17    29.83F
NEEDLES        MOSUNNY   89  59  36 MISG      29.91F
$$

NVZ020-UTZ003-272300-
SOUTHERN NEVADA-UTAH

CITY           SKY/WX    TMP DP  RH WIND       PRES   REMARKS
LAS VEGAS      MOSUNNY   87  46  24 NE6       29.94F
SALT LAKE CITY MOSUNNY   89  25  10 NW14G21   30.00F
$$

NMZ009-TXZ055-272300-
NEW MEXICO-WEST TEXAS

CITY           SKY/WX    TMP DP  RH WIND       PRES   REMARKS
ALBUQUERQUE    CLOUDY    82  42  24 SW9       30.09F
EL PASO        MOSUNNY   88  54  31 E3        29.99F
$$


........................KEY........................
SKY/WX - SKY CONDITION/WEATHER
TMP    - TEMPERATURE IN FAHRENHEIT
DP     - DEW POINT IN FAHRENHEIT
RH     - RELATIVE HUMIDITY IN PERCENT
WIND   - DIRECTION AND SPEED IN MILES PER HOUR (MPH)
VRB    - VARIABLE WIND DIRECTION
PRES   - MEAN SEA LEVEL PRESSURE IN INCHES OF MERCURY
         F - FALLING PRESSURE   R - RISING PRESSURE
         S - STEADY PRESSURE
VSB    - VISIBILITY IN MILES
HX     - HEAT INDEX IN FAHRENHEIT
WCI    - WIND CHILL INDEX IN FAHRENHEIT
TC     - TEMPERATURE IN CELSIUS WHICH IS ALSO KNOWN AS
         TEMPERATURE IN CENTIGRADE
AFB    - AIR FORCE BASE
         LUKE AFB IS LUKE AIR FORCE BASE
         DAVIS-MONTHAN IS DAVIS-MONTHAN AIR FORCE BASE
NAS    - NAVAL AIR STATION
         EL CENTRO NAS IS EL CENTRO NAVAL AIR STATION
N/A    - NOT AVAILABLE




USA.gov is the U.S. government's official web portal to all federal, state and local government web resources and services.